Weather in Bykovo

Russia / Novgorod Oblast     58°33′24″N   36°06′16″E
temp.,
°C
wind,
m/s
gust,
m/s
humid.,
%
clouds,
%
prec.,
mm/h
press.,
hPa
HPBL,
m
27 january, wed
wed2700:00+1se61195100 0.3 1002856
03:00−1se5119199 0.6 1001874
06:00−1se51293100 0.3 1000977
09:00−1se41095100 0.6 998582
12:00−1sse4996100 0.7 998693
15:000ssw4896100 1.6 999599
18:00−2sw389496 0.2 1001413
21:00−2sw389694 0.4 1003344
28 january, thu
thu2800:00−5ssw229557 0.0 100530
03:00−7s229529 0.0 100622
06:00−7sse229767 0.0 100721
09:00−6se229781 0.1 100851
12:00−3se249592 0.1 1008197
15:00−3ese259596 0.1 1007272
18:00−4e2696100 0.0 1006241
21:00−3e3797100 1.3 1004323
29 january, fri
fri2900:00−1ese3897100 1.7 1002303
03:00+2se41099100 2.0 1001382
06:00+2sse41098100 0.2 1000375
09:00+1se4998100 0.4 999345
12:000se3898100 0.1 998401
15:000ese3699100 1.3 996406
18:00−1e3798100 2.7 994395
21:00−2ese4897100 4.9 992509
30 january, sat
sat3000:00−3ese4896100 1.1 991477
03:00−4ese3796100 1.6 990317
06:00−4sse3797100 0.4 989244
09:00−5sse489598 0.9 988285
12:00−5sse359598 0.1 989242
15:00−4sse239599 0.1 988247
18:00−5s2497100 0.3 989134
21:00−5ssw2597100 0.8 990148
31 january, sun
sun3100:00−6ssw2696100 0.1 991163
03:00−9s259695 0.1 993135
06:00−9s279754 0.0 993146
09:00−8s269769 0.1 994181
12:00−7s259593 0.0 994259
15:00−6sse259597 0.1 994300
18:00−7s2497100 0.2 995136
21:00−7ssw2597100 0.5 995178